{"data":{"norad_id":52686,"epoch":"2026-05-25T00:13:02.821152Z","epoch_age_seconds":74136,"freshness":"FRESH","line1":"1 52686U 22053AG  26145.00906043  .00000109  00000+0  24920-4 0  9999","line2":"2 52686  53.2124 161.7885 0001264  87.2006 272.9131 15.08832736222642","mean_motion":15.08832736,"eccentricity":0.0001264,"inclination_deg":53.2124,"raan_deg":161.7885,"arg_perigee_deg":87.2006,"mean_anomaly_deg":272.9131,"bstar":2.492e-5,"rev_number":22264,"period_min":95.438014144465,"perigee_km":538.89116930752,"apogee_km":540.64001508283,"semimajor_km":6917.9025921952,"source":"CELESTRAK","updated_at":"2026-05-25T13:38:17.235540Z"}}